Hourly Weather Roundup
Issued by NWS Central Illinois

Home | Current Version | Previous Version | Text Only | Print | Product List | Glossary On
Versions: 1 2 3 4 5 6 7 8 9 10 11 12 13 14 15 16 17 18 19 20 21 22 23 24 25 26 27 28 29 30 31 32 33 34 35 36 37 38 39 40 41 42 43 44 45 46 47 48 49 50
000
NZUS43 KILX 062310
HWRILX

AREA WEATHER ROUNDUP
NATIONAL WEATHER SERVICE, LINCOLN IL
600 PM CDT MON JUL 06 2015


CITY           SKY/WX    TMP DP  RH WIND       PRES   REMARKS
BLOOMINGTON    MOSUNNY   84  77  80 S17       29.90F HX  93
CHAMPAIGN      CLOUDY    84  74  71 S12       29.92F HX  91
DANVILLE       CLOUDY    82  73  75 S8        29.90S HX  87
DECATUR        PTSUNNY   83  70  64 S14       29.91S HX  87
EFFINGHAM      CLOUDY    74  68  80 S5        29.95F
FLORA          MOSUNNY   83  74  73 S9        29.94F HX  89
GALESBURG      CLOUDY    82  74  76 S9        29.82F HX  89
JACKSONVILLE   MOSUNNY   86  73  64 S9        29.86S HX  93
LACON          PTSUNNY   83  74  73 S7        29.83S HX  90
LAWRENCEVILLE  MOSUNNY   85  74  69 SW13      29.95F HX  92
LITCHFIELD     CLOUDY    82  73  75 S12       29.91F HX  86
$$


CITY           SKY/WX    TMP DP  RH WIND       PRES   REMARKS
LINCOLN        PTSUNNY   86  74  66 S12       29.86F HX  94
MACOMB         PTSUNNY   84  74  73 S12G17    29.84F HX  91
MATTOON        LGT RAIN  74  69  85 SW8G24    29.94S
MT CARMEL AP   MOSUNNY   86  72  62 S10G17    29.95F HX  92
OLNEY-NOBLE AP PTSUNNY   82  75  78 S7        29.95F HX  89
PARIS          PTSUNNY   84  74  71 S8        29.94F HX  90
PEORIA         PTSUNNY   86  74  67 S13       29.84F HX  94
PONTIAC        PTSUNNY   82  78  85 S7        29.88F HX  91
RANTOUL        CLOUDY    86  75  69 S13       29.91F HX  95
ROBINSON       MOSUNNY   85  73  66 SW10G17   29.95F HX  91
SPRINGFIELD    PTSUNNY   86  74  67 S15       29.87F HX  94
TAYLORVILLE    PTSUNNY   81  72  74 S10       29.90F HX  84
$$

...REGIONAL REPORTS...


CITY           SKY/WX    TMP DP  RH WIND       PRES   REMARKS
CHICAGO O`HARE PTSUNNY   81  72  74 S14       29.85F HX  85
KANKAKEE       LGT RAIN  73  70  91 E3        29.89F
MOLINE         CLOUDY    72  68  87 E9        29.81F
MOUNT STERLING NOT AVBL
MOUNT VERNON   PTSUNNY   84  72  65 S13       29.95F HX  89
PITTSFIELD     MOSUNNY   84  74  72 S10       29.87S HX  92
QUINCY         PTSUNNY   85  74  69 S9        29.84S HX  92
ROCKFORD       CLOUDY    79  74  84 S10       29.84F HX  82
$$


CITY           SKY/WX    TMP DP  RH WIND       PRES   REMARKS
BURLINGTON     CLOUDY    83  76  79 S12       29.80F HX  91
CEDAR RAPIDS   PTSUNNY   76  73  91 NW10      29.82F
DES MOINES     CLOUDY    73  68  84 N14       29.88R
KIRKSVILLE     LGT RAIN  77  74  90 S3        29.86R FOG
OTTUMWA        RAIN      73  72  96 SW5       29.85R FOG
ST LOUIS       PTSUNNY   84  70  62 S9        29.89F HX  88
$$


CITY           SKY/WX    TMP DP  RH WIND       PRES   REMARKS
TERRE HAUTE    PTSUNNY   84  73  69 SW10      29.95F HX  90
EVANSVILLE     LGT RAIN  85  73  67 S7        29.97F HX  91
INDIANAPOLIS   MOSUNNY   83  68  60 S9        29.96F HX  86
LAFAYETTE      PTSUNNY   83  71  67 S7        29.92F HX  87
MADISON        CLOUDY    79  69  71 SW9       29.82S HX  81
MILWAUKEE      PTSUNNY   79  67  66 SW18      29.83F HX  81
$$




USA.gov is the U.S. government's official web portal to all federal, state and local government web resources and services.